Wind_Speed
6 6 6 6 6 5 5 7 4 4 2 2 3 3 4 6 6 6 6 6 5 4 4 4 6 5 7 3 5 2 7 11 9 11 14 5 8 3 4 5 4 5 4 3 5 3 4
2 4 6 6 5 4 5 6 5 3 3 2 2 2 4 6 7 8 7 6 6 5 5 5 5 4 5 1 4 3 7 10 11 11 13 14 6 6 6 3 2 4 2 2 2 3 3
3 2 2 3 4 6 5 4 5 5 4 4 2 1 4 6 6 9 9 8 7 6 6 6 5 3 3 5 4 3 7 10 10 9 8 10 5 1 2 5 2 3 2 6 6 4 2
0 1 0 2 2 3 4 3 3 4 5 4 3 3 3 4 7 9 10 9 8 6 7 7 6 4 3 6 5 5 5 10 9 9 8 6 6 5 4 4 4 3 0 1 5 6 4
2 0 1 1 2 1 3 3 3 3 5 5 3 3 4 4 8 12 12 11 8 8 6 7 2 5 4 7 4 4 2 5 6 5 5 3 3 3 2 1 1 3 1 2 5 7 2
2 2 1 0 1 1 2 3 3 3 4 5 4 2 6 7 10 13 15 13 11 9 5 2 4 2 3 4 7 6 6 5 3 2 3 1 1 2 1 2 1 2 1 2 4 7 5
2 2 2 1 1 1 2 2 3 3 3 4 2 1 8 10 14 21 22 15 5 2 7 1 1 4 9 9 9 5 4 4 3 3 1 3 2 2 4 1 5 2 2 4 5 7 1
0 1 2 3 2 2 2 2 2 2 2 3 2 3 9 13 17 19 9 5 2 1 3 8 2 6 8 7 4 7 5 3 2 1 3 2 2 5 8 6 1 1 2 4 2 5 2
0 1 1 2 2 2 2 2 2 3 2 3 2 6 11 14 16 13 6 2 1 2 3 4 6 4 4 7 1 11 7 2 4 4 6 2 4 6 4 4 2 3 3 1 2 8 9
3 4 2 2 2 2 3 3 3 2 2 2 2 9 14 14 9 9 7 9 4 2 2 6 5 3 6 4 3 8 11 1 2 2 2 3 4 4 3 3 5 1 6 4 1 5 2
6 5 5 6 6 2 3 3 4 3 2 1 3 10 15 16 3 4 4 8 7 1 3 7 6 2 8 4 8 2 2 2 4 6 3 2 7 5 3 4 7 2 4 3 3 1 5
8 8 8 6 7 7 4 3 3 3 3 2 2 10 15 12 3 3 5 8 4 1 7 5 5 6 6 6 4 4 4 3 4 1 5 0 3 1 1 6 6 8 3 2 0 2 1
12 11 10 9 9 7 8 6 5 3 3 4 4 11 17 5 1 7 11 4 1 4 3 6 5 7 8 8 8 6 6 5 5 4 6 5 6 3 6 5 5 4 1 3 1 2 4
14 14 13 12 11 10 9 8 6 5 5 3 4 14 14 4 4 11 8 2 5 3 5 6 5 8 7 9 6 9 7 4 10 4 1 6 4 8 7 3 5 4 3 4 6 3 1
17 16 16 15 14 13 12 10 8 6 6 1 7 9 6 7 9 12 3 3 6 5 6 8 8 6 7 6 4 6 8 5 9 16 10 6 2 5 5 3 2 5 3 1 2 1 2
20 19 19 18 17 16 16 14 12 9 6 6 5 6 8 9 11 7 3 6 5 3 6 5 8 10 8 9 5 10 11 5 5 10 3 1 3 5 3 2 3 2 1 4 2 2 6
23 23 22 21 20 20 19 17 16 13 9 7 4 2 4 12 10 3 4 7 6 5 7 8 5 5 7 7 9 6 6 3 7 7 6 2 3 4 6 8 9 3 2 2 0 3 5
28 27 26 26 24 23 21 20 19 17 13 10 4 3 9 15 4 4 7 5 3 3 3 3 2 3 7 8 9 8 10 7 11 9 9 7 3 5 7 2 4 2 7 7 4 6 3
31 31 30 29 28 27 25 24 23 23 24 9 2 3 5 7 5 10 6 4 3 4 5 6 7 7 3 5 2 8 4 4 8 8 8 9 4 2 1 3 2 4 6 3 2 2 6
35 34 33 32 31 30 28 28 27 28 29 13 2 4 3 3 5 3 8 14 8 9 6 5 4 4 3 4 4 2 2 1 6 3 4 8 3 6 11 3 6 6 7 14 11 4 5
39 37 36 34 34 32 34 32 32 32 35 23 3 5 6 6 9 14 4 3 9 8 6 7 4 9 7 5 3 5 5 3 2 7 3 5 6 6 15 10 5 7 6 17 19 27 14
12 3 6 26 35 36 39 36 37 37 38 26 5 4 2 2 7 15 19 10 15 10 7 7 8 9 8 10 14 9 7 8 6 8 8 5 4 3 10 12 12 18 22 17 27 23 26
24 20 18 17 20 23 22 14 27 40 44 14 15 8 3 7 5 8 9 18 20 13 11 19 14 8 12 24 14 12 8 5 6 12 13 8 5 5 6 3 6 10 21 23 21 14 27
12 15 16 14 10 13 18 21 20 16 19 27 15 7 4 9 12 14 12 17 20 19 18 10 18 11 5 7 3 3 10 12 12 12 13 8 8 4 2 3 7 11 3 13 22 26 23
13 14 15 15 14 14 13 14 17 17 21 19 13 5 2 5 11 16 18 18 16 17 20 19 15 10 10 6 4 4 4 3 11 20 19 19 10 5 5 9 10 15 5 7 9 14 23
13 14 13 13 14 15 14 16 17 14 16 18 21 26 4 3 10 15 13 17 13 10 13 21 17 8 7 3 5 7 9 7 6 4 12 16 16 10 7 6 10 13 3 3 6 10 11
14 14 15 15 16 15 16 17 16 17 15 17 14 16 9 4 6 6 5 5 5 7 6 2 6 5 13 7 9 11 12 5 12 8 8 5 9 20 18 16 6 9 8 2 6 19 8
18 18 19 19 18 15 15 17 16 15 14 16 16 18 16 4 10 15 12 12 7 6 10 2 1 1 5 10 9 10 8 12 13 23 14 15 11 8 11 13 18 8 4 12 14 2 3
14 16 16 16 17 18 18 19 19 18 18 17 19 20 21 9 8 16 19 27 33 18 5 8 5 5 6 5 3 2 4 3 6 14 8 14 13 10 12 8 6 11 13 17 2 4 3
Wind_Direction
64 62 62 71 68 62 64 54 74 110 145 126 133 150 162 168 170 165 161 159 156 157 170 188 197 215 298 168 71 54 29 26 26 35 29 3 38 10 102 103 106 89 139 144 114 126 236
50 60 58 48 57 57 66 69 63 60 66 89 115 187 184 177 176 172 166 159 157 162 175 186 200 201 278 150 107 70 54 41 43 47 40 37 32 22 76 88 13 61 109 172 145 219 238
43 42 46 33 40 49 71 67 63 47 51 56 29 139 156 171 178 175 168 156 156 161 172 177 184 220 274 89 118 71 67 53 52 46 69 36 355 333 129 115 125 108 222 167 197 200 280
109 73 56 343 335 19 37 47 46 43 23 38 37 121 134 154 177 171 164 152 151 159 157 173 179 274 72 148 132 111 83 70 64 67 76 41 32 77 30 117 170 226 89 141 118 158 130
195 174 284 247 351 2 354 19 32 32 18 13 24 123 122 131 160 162 153 148 143 139 153 154 215 238 106 145 161 116 90 96 79 68 69 39 29 79 164 213 139 214 264 164 142 189 131
241 198 258 251 0 356 226 320 2 19 10 19 8 130 126 125 141 147 139 131 127 121 132 210 276 289 158 187 137 120 110 101 92 154 168 203 88 111 359 91 206 113 145 117 236 183 191
211 242 261 223 256 246 289 291 266 337 357 1 22 152 145 138 135 132 132 125 146 170 226 237 78 82 127 100 131 153 140 133 145 248 44 51 102 155 89 156 56 4 337 276 298 97 13
271 265 238 226 235 253 264 274 221 282 317 341 353 206 159 151 149 147 164 286 49 59 195 192 65 67 127 174 133 149 166 200 213 186 122 156 142 72 77 83 75 212 276 272 18 89 314
203 275 313 225 222 242 276 276 282 264 300 333 341 185 162 154 163 181 218 357 172 28 249 149 202 173 178 190 211 166 189 185 208 228 181 212 100 120 122 130 97 229 238 309 261 331 263
272 246 228 222 241 254 269 284 277 293 296 349 356 171 163 160 160 209 240 222 188 40 275 151 187 185 151 215 161 121 204 310 186 247 237 249 118 157 161 204 148 247 12 60 345 15 287
265 265 266 235 217 242 253 266 280 281 276 340 23 169 172 155 113 181 178 207 183 188 315 128 136 139 166 176 133 129 52 112 226 175 136 144 153 171 188 211 139 142 44 57 26 316 20
254 250 252 257 257 241 238 250 256 267 273 275 329 181 176 200 242 212 170 146 152 145 250 153 129 163 160 217 160 123 177 265 10 332 212 169 358 236 100 69 98 107 72 82 93 167 0
262 254 251 250 246 246 241 241 262 263 267 271 276 194 184 212 302 190 145 172 185 217 119 176 182 167 199 175 178 180 168 186 172 130 200 179 175 83 138 99 89 68 67 319 312 355 231
256 259 256 250 250 245 241 237 235 240 263 275 275 180 190 247 209 160 168 196 238 260 157 123 131 158 190 156 209 187 177 227 232 234 59 175 243 151 201 164 166 178 165 186 237 243 264
257 254 253 252 247 244 240 238 232 224 267 165 143 169 227 224 181 169 247 204 216 209 121 141 131 194 203 167 140 157 219 211 203 183 181 173 156 36 46 58 79 180 191 191 28 301 48
256 256 253 250 246 243 237 233 227 219 224 172 178 195 196 204 166 192 229 246 237 68 127 153 200 177 183 178 165 181 185 208 209 182 91 288 103 169 100 98 72 131 193 65 336 274 259
263 260 254 251 247 244 239 232 228 218 204 185 229 231 170 166 153 221 220 229 259 194 167 182 229 222 233 159 188 192 236 177 157 166 111 114 101 115 128 207 179 137 228 200 3 201 214
261 258 256 255 252 250 246 237 224 208 193 184 243 224 160 157 187 207 224 203 335 242 271 274 310 281 193 170 187 218 213 196 130 138 165 196 166 172 196 11 59 211 202 163 169 236 223
262 260 258 256 253 250 244 238 227 210 190 164 225 129 173 199 207 223 221 229 227 230 196 202 227 222 7 206 201 218 167 78 130 152 161 169 202 164 98 357 24 216 211 227 32 104 197
258 257 254 253 251 249 245 239 229 217 200 199 197 178 147 218 273 252 228 241 216 206 231 206 232 104 122 209 235 221 145 91 170 199 108 165 216 198 241 177 124 192 205 201 192 195 220
252 256 256 254 249 246 245 239 231 221 204 189 198 228 184 185 227 227 216 273 225 214 219 172 237 200 170 184 204 208 176 136 202 215 139 149 238 210 253 261 200 198 183 196 207 220 214
319 354 230 246 243 251 248 241 237 224 205 194 186 182 196 253 208 198 217 225 229 229 158 218 230 204 187 219 211 198 187 179 194 178 174 191 254 219 263 241 235 251 247 196 214 223 235
306 308 298 276 279 275 277 310 244 226 202 202 200 200 164 185 182 191 196 211 218 214 231 233 211 201 203 224 217 237 204 201 180 163 185 180 199 166 257 126 105 271 238 226 229 217 220
277 276 272 274 269 275 264 269 264 270 240 210 203 173 180 231 204 212 220 205 218 207 220 219 221 213 210 114 51 13 237 239 222 196 175 177 183 192 200 116 222 250 222 213 218 231 212
283 281 281 280 278 270 263 257 252 253 248 263 240 207 194 243 223 231 231 226 228 228 228 235 232 210 152 109 170 209 192 236 229 222 202 203 178 212 216 211 278 299 228 159 174 250 222
271 273 279 285 283 284 272 267 262 252 243 245 230 211 191 243 227 230 232 227 230 233 244 242 240 201 128 169 187 221 230 192 204 242 219 205 210 205 200 225 228 244 252 145 96 265 163
275 278 278 276 268 271 282 278 269 264 253 246 254 247 207 202 237 217 212 202 170 208 247 278 222 214 185 204 221 230 235 212 230 199 178 180 202 218 227 240 251 245 168 159 139 262 191
275 273 274 274 271 266 269 273 277 272 264 258 260 249 244 251 257 239 239 236 224 203 232 128 171 148 179 219 228 226 225 226 228 235 223 196 182 205 229 242 250 146 54 185 234 317 164
282 283 279 278 279 271 271 272 270 266 262 260 267 262 256 246 272 278 250 250 245 259 205 194 226 158 200 227 240 249 247 227 229 243 246 242 223 220 193 210 216 189 220 229 159 179 181
Height
819 819 817 817 816 816 816 815 815 815 814 814 814 813 813 814 816 818 819 820 822 823 824 826 827 828 828 826 832 834 833 831 830 829 828 826 826 824 832 836 836 845 846 849 851 855 857
820 819 818 817 817 817 816 816 816 816 815 815 814 813 813 814 815 817 819 820 822 824 825 827 828 829 830 827 835 835 833 832 832 832 833 831 832 830 834 839 841 846 849 849 851 853 855
819 819 819 819 818 818 817 817 817 817 816 815 814 812 813 814 815 817 818 820 822 824 826 828 829 830 828 836 836 835 835 834 834 834 836 837 835 834 835 843 847 849 849 850 853 854 855
819 819 819 819 819 818 818 818 817 817 816 815 814 813 813 813 815 817 819 821 823 825 826 829 830 831 832 835 836 837 837 837 837 837 838 839 838 839 840 846 847 846 846 847 850 854 858
819 818 819 819 819 819 819 819 818 818 817 816 814 813 813 813 815 817 819 821 824 826 828 829 831 830 832 835 836 837 838 838 839 840 840 840 839 842 845 846 848 843 845 837 847 849 852
819 818 818 818 818 819 819 819 818 818 818 816 815 814 814 815 816 817 820 822 825 827 829 831 831 833 837 832 835 837 839 839 840 841 840 839 841 846 847 852 846 837 842 835 839 848 853
818 818 818 818 818 818 819 819 818 818 817 817 816 815 815 817 818 819 821 824 831 832 828 824 824 826 829 834 837 837 838 839 840 840 839 845 849 843 836 838 844 845 842 843 839 846 853
819 818 818 818 818 818 818 818 818 818 817 816 816 815 816 818 820 821 823 820 822 825 823 824 826 827 830 832 835 837 839 839 840 837 840 847 846 840 840 848 848 847 848 848 838 847 853
818 818 818 818 818 818 817 818 817 817 817 816 815 815 817 819 821 823 821 822 822 822 821 825 825 826 830 832 827 833 838 837 838 837 839 842 838 842 845 853 857 850 854 851 855 855 844
818 818 817 818 818 818 817 817 817 817 817 816 815 815 817 819 825 822 822 820 822 822 820 823 827 826 828 828 830 832 835 837 837 837 832 834 844 844 849 850 859 863 857 855 858 868 871
817 817 817 817 816 816 816 816 817 816 816 816 816 816 818 819 820 821 820 819 821 823 817 819 824 827 826 827 834 837 838 839 838 838 844 837 848 851 852 848 854 863 862 866 867 872 888
814 814 815 815 816 816 815 815 816 816 816 816 816 817 819 821 820 819 819 820 823 822 815 818 824 827 829 826 829 838 839 840 841 839 839 837 844 843 842 852 854 864 876 873 882 883 909
812 812 812 813 813 814 814 814 815 815 815 815 816 817 819 821 819 818 819 822 820 816 801 815 820 819 822 824 827 833 839 847 848 854 843 839 847 849 850 862 864 881 879 878 858 902 861
807 810 810 810 812 811 812 813 814 814 814 814 814 816 818 820 819 819 820 823 818 780 787 798 804 815 819 811 818 827 833 842 837 834 835 835 846 856 852 854 864 884 882 861 854 854 847
803 804 805 806 808 809 810 811 811 813 812 813 815 817 817 817 818 820 822 822 797 784 789 800 810 814 814 806 811 821 828 828 818 824 832 833 840 853 855 859 865 879 893 870 877 880 878
798 799 800 801 803 804 806 808 809 811 811 813 815 816 814 815 818 821 821 803 789 779 787 795 795 793 800 807 822 824 817 807 808 813 825 815 843 849 864 863 869 874 868 885 883 879 856
793 794 795 796 797 799 801 803 806 808 810 812 814 813 812 814 819 820 817 802 783 777 782 789 783 784 782 799 810 811 801 795 799 810 817 829 833 862 864 868 869 881 876 877 869 859 862
786 787 788 790 791 793 795 798 801 804 808 810 808 809 811 814 819 808 804 789 784 780 784 787 789 780 778 780 796 794 794 783 798 809 826 825 833 855 856 861 857 855 855 862 845 856 868
777 778 779 781 783 785 788 791 794 799 801 806 804 804 812 813 808 797 789 787 785 785 788 791 787 781 781 783 801 786 780 798 802 807 816 819 836 836 848 860 858 861 851 848 851 859 856
767 768 769 771 774 776 779 782 786 790 795 802 801 803 810 810 798 796 790 778 784 782 784 783 783 784 789 788 781 795 796 807 807 806 805 812 817 811 777 796 835 857 847 838 836 832 834
755 756 758 760 763 765 768 772 775 780 786 795 796 785 783 798 793 791 787 775 774 779 780 781 782 782 787 793 788 787 792 809 811 808 811 817 814 814 799 797 809 824 828 830 828 810 806
746 747 747 752 752 754 756 757 763 767 775 780 783 781 781 775 771 779 781 776 775 772 779 781 780 773 782 781 775 779 784 794 797 815 818 817 810 808 801 798 797 798 786 813 807 801 800
745 745 744 745 745 748 750 752 752 754 759 760 769 770 771 765 766 770 765 761 759 763 773 764 766 775 783 769 767 770 778 782 785 798 808 810 811 807 796 803 807 807 778 773 769 777 777
739 740 743 743 740 743 743 746 747 751 752 748 753 758 763 750 756 751 745 753 754 752 753 751 758 768 761 760 770 775 775 778 779 784 785 795 804 797 796 811 798 741 760 749 752 746 756
732 735 736 737 738 739 739 740 741 743 746 749 751 755 755 742 743 743 742 740 743 744 745 750 747 749 753 763 766 765 769 774 765 765 770 767 787 783 781 777 757 740 750 759 761 738 734
732 732 730 731 733 736 735 735 737 737 739 741 741 744 751 746 733 736 736 736 736 739 740 732 738 741 752 756 751 745 742 746 749 757 754 763 763 770 769 762 754 719 741 751 749 747 721
725 725 727 727 729 729 731 731 731 733 732 734 733 734 732 737 728 729 730 728 730 732 728 728 727 738 740 740 738 731 725 716 725 744 768 762 754 747 744 736 730 722 746 752 760 692 705
720 721 722 724 724 722 724 726 724 727 728 729 726 730 731 723 716 717 719 720 723 722 723 728 732 729 735 729 723 714 712 703 707 695 707 729 740 736 737 732 722 728 744 729 686 705 708
717 718 717 717 718 721 721 719 720 721 721 723 722 725 725 724 713 712 709 710 710 710 717 720 714 721 720 722 712 709 702 699 692 689 689 694 688 691 709 698 696 704 687 690 701 695 702